Torna al catalogo

STARLINK-37809

AttivoComunicazioniVLEO
NORAD 100288·PAYLOAD·🇺🇸 United States

Lanciato Aug 11, 2026 da Cape Canaveral Space Force Station

Loading…

Prossimi Passaggi (prossime 24 ore)

TLE

In scadenzaSource: Space-Track

Epoca: Sep 12, 2026, 06:37 UTC

1 A0288U 26183S   26255.27581844  .00177036  00000-0  11474-2 0  9990
2 A0288  53.1570 297.7987 0004523 332.6033  27.4748 15.74981865  5016

Traccia STARLINK-37809 in tempo reale con AllMySat

Download on the App Store